EHI
0 0 0 0 0 0 0 0 0 0 0 0 0 0 0 0 0 0 0 0 0 0 0 0 0 0 0 0 0 0 0 0 0 0 0 0 0 0 0 0 0 0 0
0 0 0 0 0 0 0 0 0 0 0 0 0 0 0 0 0 0 0 0 0 0 0 0 0 0 0 0 0 0 0 0 0 0 0 0 0 0 0 0 0 0 0
0 0 0 0 0 0 0 0 0 0 0 0 0 0 0 0 0 0 0 0 0 0 0 0 0 0 0 0 0 0 0 0 0 0 0 0 0 0 0 0 0 0 0
0 0 0 0 0 0 0 0 0 0 0 0 0 0 0 0 0 0 0 0 0 0 0 0 0 0 0 0 0 0 0 0 0 0 0 0 0 0 0 0 0 0 0
0 0 0 0 0 0 0 0 0 0 0 0 0 0 0 0 0 0 0 0 0 0 0 0 0 0 0 0 0 0 0 0 0 0 0 0 0 0 0 0 0 0 0
0 0 0 0 0 0 0 0 0 0 0 0 0 0 0 0 0 0 0 0 0 0 0 0 0 0 0 0 0 0 0 0 0 0 0 0 0 0 0 0 0 0 0
0 0 0 0 0 0 0 0 0 0 0 0 0 0 0 0 0 0 0 0 0 0 0 0 0 0 0 0 0 0 0 0 0 0 0 0 0 0 0 0 0 0 0
0 0 0 0 0 0 0 0 0 0 0 0 0 0 0 0 0 0 0 0 0 0 0 0 0 0 0 0 0 0 0 0 0 0 0 0 0 0 0 0 0 0 0
0 0 0 0 0 0 0 0 0 0 0 0 0 0 0 0 0 0 0 0 0 0 0 0 0 0 0 0 0 0 0 0 0 0 0 0 0 0 0 0 0 0 0
0 0 0 0 0 0 0 0 0 0 0 0 0 0 0 0 0 0 0 0 0 0 0 0 0 0 0 0 0 0 0 0 0 0 0 0 0 0 0 0 0 0 0
0 0 0 0 0 0 0 0 0 0 0 0 0 0 0 0 0 0 0 0 0 0 0 0 0 0 0 0 0 0 0 0 0 0 0 0 0 0 0 0 0 0 0
0 0 0 0 0 0 0 0 0 0 0 0 0 0 0 0 0 0 0 0 0 0 0 0 0 0 0 0 0 0 0 0 0 0 0 0 0 0 0 0 0 0 0
0 0 0 0 0 0 0 0 0 0 0 0 0 0 0 0 0 0 0 0 0 0 0 0 0 0 0 0 0 0 0 0 0 0 0 0 0 0 0 0 0 0 0
0 0 0 0 0 0 0 0 0 0 0 0 0 0 0 0 0 0 0 0 0 0 0 0 0 0 0 0 0 0 0 0 0 0 0 0 0 0 0 0 0 0 0
0 0 0 0 0 0 0 0 0 0 0 0 0 0 0 0 0 0 0 0 0 0 0 0 0 0 0 0 0 0 0 0 0 0 0 0 0 0 0 0 0 0 0
0 0 0 0 0 0 0 0 0 0 0 0 0 0 0 0 0 0 0 0 0 0 0 0 0 0 0 0 0 0 0 0 0 0 0 0 0 0 0 0 0 0 0
0 0 0 0 0 0 0 0 0 0 0 0 0 0 0 0 0 0 0 0 0 0 0 0 0 0 0 0 0 0 0 0 0 0 0 0 0 0 0 0 0 0 0
0 0 0 0 0 0 0 0 0 0 0 0 0 0 0 0 0 0 0 0 0 0 0 0 0 0 0 0 0 0 0 0 0 0 0 0 0 0 0 0 0 0 0
0 0 0 0 0 0 0 0 0 0 0 0 0 0 0 0 0 0 0 0 0 0 0 0 0 0 0 0 0 0 0 0 0 0 0 0 0 0 0 0 0 0 0
0 0 0 0 0 0 0 0 0 0 0 0 0 0 0 0 0 0 0 0 0 0 0 0 0 0 0 0 0 0 0 0 0 0 0 0 0 0 0 0 0 0 0
0 0 0 0 0 0 0 0 0 0 0 0 0 0 0 0 0 0 0 0 0 0 0 0 0 0 0 0 0 0 0 0 0 0 0 0 0 0 0 0 0 0 0
0 0 0 0 0 0 0 0 0 0 0 0 0 0 0 0 0 0 0 0 0 0 0 0 0 0 0 0 0 0 0 0 0 0 0 0 0 0 0 0 0 0 0
0 0 0 0 0 0 0 0 0 0 0 0 0 0 0 0 0 0 0 0 0 0 0 0 0 0 0 0 0 0 0 0 0 0 0 0 0 0 0 0 0 0 0
0 0 0 0 0 0 0 0 0 0 0 0 0 0 0 0 0 0 0 0 0 0 0 0 0 0 0 0 0 0 0 0 0 0 0 0 0 0 0 0 0 0 0
0 0 0 0 0 0 0 0 0 0 0 0 0 0 0 0 0 0 0 0 0 0 0 0 0 0 0 0 0 0 0 0 0 0 0 0 0 0 0 0 0 0 0
0 0 0 0 0 0 0 0 0 0 0 0 0 0 0 0 0 0 0 0 0 0 0 0 0 0 0 0 0 0 0 0 0 0 0 0 0 0 0 0 0 0 0
Wind_Speed
4 3 2 2 3 2 2 2 1 2 2 2 2 3 3 3 2 2 1 3 3 3 3 3 3 2 1 1 1 2 2 3 3 4 4 4 4 4 4 4 3 3 2
4 4 3 3 3 3 3 2 2 2 2 1 2 3 4 3 3 2 1 2 3 3 4 4 3 3 2 2 2 2 2 3 3 3 3 3 3 3 3 3 3 3 4
6 5 4 4 4 3 3 2 2 1 1 1 1 2 2 3 3 3 2 1 1 3 4 4 4 4 3 3 3 3 3 3 3 4 4 3 3 3 4 4 4 5 5
7 5 4 4 4 3 3 3 2 1 1 1 1 1 1 2 3 3 2 2 2 1 2 3 3 3 3 3 3 3 3 3 4 4 4 3 3 3 4 5 5 5 5
8 7 6 5 4 3 3 3 2 2 2 2 2 1 1 2 2 3 3 3 3 2 2 2 3 2 2 3 3 3 3 3 3 3 3 3 3 3 3 3 3 4 4
8 7 5 5 4 3 3 3 3 2 2 3 2 1 1 1 2 3 4 3 3 3 3 2 1 2 3 3 3 3 3 3 3 3 3 2 2 2 2 3 3 4 4
7 7 5 5 5 5 5 5 3 3 2 2 3 1 1 1 2 3 3 3 4 4 4 3 2 2 1 3 3 4 4 4 3 3 3 2 1 2 2 3 4 4 5
8 7 7 5 5 4 4 5 4 3 2 3 3 2 1 2 2 1 2 3 4 3 4 5 4 4 3 2 2 4 4 4 4 4 4 3 2 2 2 3 4 4 3
8 8 8 7 6 6 5 6 5 6 4 2 2 4 4 4 2 2 2 2 2 3 3 3 5 5 4 3 3 4 5 5 6 6 5 3 2 2 2 2 2 2 1
7 8 8 8 7 6 6 6 6 4 5 3 2 1 2 3 2 1 2 1 1 3 3 4 4 5 5 4 5 6 7 7 7 7 6 5 4 3 2 2 2 1 1
5 6 7 7 7 6 7 7 6 5 4 4 3 3 2 1 2 2 2 2 1 1 2 4 4 4 5 5 5 7 9 8 8 8 7 6 5 4 3 2 2 2 1
3 4 5 6 6 6 6 6 6 6 4 4 3 3 3 3 3 3 3 2 2 2 2 2 3 4 4 5 7 10 11 10 9 9 7 6 6 5 5 3 3 3 2
2 4 5 5 5 5 6 6 6 6 6 5 5 3 3 3 3 3 3 2 2 2 2 2 2 3 3 4 5 10 10 10 10 10 8 7 6 6 6 5 5 5 4
0 2 3 4 5 5 6 5 4 5 5 5 5 5 3 3 3 3 3 4 2 1 2 3 1 2 2 2 4 7 6 10 11 10 9 8 7 7 7 7 7 6 6
2 3 3 2 3 4 5 5 4 4 4 4 4 4 3 3 3 3 2 3 4 2 2 2 2 1 1 2 3 4 4 7 9 10 9 8 8 8 7 7 6 5 5
4 4 4 3 3 3 3 4 3 3 3 3 3 4 3 2 3 3 3 2 3 3 2 2 2 2 1 1 2 2 3 6 6 8 9 9 9 9 8 8 8 7 6
5 5 5 4 4 4 3 3 3 3 3 3 3 3 3 3 2 2 2 2 2 3 3 2 1 1 1 1 1 0 1 2 2 5 7 8 9 9 9 9 9 9 8
5 4 4 5 4 4 3 2 2 3 3 2 3 3 3 3 3 2 2 3 3 3 3 2 1 2 2 2 1 1 1 0 1 3 5 6 7 8 9 9 9 9 9
6 6 6 6 5 4 4 3 2 2 2 2 2 3 3 3 3 2 3 3 2 2 2 2 0 1 1 1 2 2 2 1 1 1 2 2 4 5 6 7 7 8 9
7 7 6 6 5 4 4 3 2 2 1 1 1 2 3 4 4 4 3 3 3 3 2 2 1 1 1 1 1 1 1 2 2 3 3 3 3 2 2 3 4 5 6
9 7 7 7 6 4 4 3 2 2 1 1 0 1 2 4 5 4 4 4 4 3 3 2 1 1 1 1 1 1 1 1 2 3 2 3 3 2 3 3 3 3 2
8 8 8 7 7 6 8 7 4 2 2 1 1 1 1 2 3 5 7 7 6 5 4 3 2 2 1 0 1 1 1 1 2 3 2 3 3 3 3 3 5 6 6
7 8 8 7 7 8 11 9 7 3 3 2 2 1 1 2 4 4 6 7 5 5 5 4 3 2 1 0 1 2 2 2 2 2 2 2 3 4 4 6 10 10 10
6 6 7 7 7 10 14 11 8 5 4 3 3 3 2 2 3 5 5 5 4 4 4 4 4 3 2 1 2 2 2 3 2 3 2 2 3 3 4 5 13 14 14
6 6 5 7 8 9 14 11 7 3 3 4 4 3 3 2 3 7 6 6 5 4 6 8 7 6 7 6 4 3 3 3 3 3 3 2 2 2 3 5 8 14 14
5 5 6 6 7 8 13 13 8 3 3 3 4 4 5 3 4 6 5 6 6 4 4 5 6 8 7 8 9 4 2 3 2 2 3 2 2 1 3 3 5 7 7
Wind_Direction
202 206 213 211 211 202 209 226 241 266 271 258 238 225 224 214 204 195 270 269 234 230 216 192 180 177 169 160 166 151 143 145 141 139 138 138 139 141 143 149 155 161 169
203 205 214 213 211 203 205 211 230 255 270 261 245 220 213 201 199 192 208 274 251 241 247 231 209 204 211 217 219 197 182 180 176 170 165 164 169 174 185 198 209 213 215
205 206 211 217 214 194 191 199 221 235 253 228 218 202 194 192 189 196 204 233 265 252 250 252 248 227 225 231 231 226 214 206 200 201 201 200 205 214 225 234 238 237 233
205 202 210 223 211 180 176 186 193 204 218 188 172 186 183 182 194 201 207 226 240 256 262 260 266 245 236 241 240 236 228 210 213 220 222 221 228 239 248 252 255 253 243
206 202 210 219 203 185 183 193 176 173 183 182 174 178 216 196 195 208 216 223 228 232 239 267 256 238 244 248 251 251 232 219 218 226 228 227 232 248 256 261 267 267 257
208 205 210 214 196 190 188 183 172 164 172 165 151 134 222 226 206 216 221 220 223 225 221 231 241 252 247 245 250 254 248 235 230 233 232 226 226 249 264 275 281 282 277
200 200 208 201 189 194 194 179 159 159 154 135 114 86 328 264 227 231 223 223 226 222 214 216 212 211 241 249 245 250 251 246 245 242 242 237 229 254 267 273 278 282 281
198 204 201 196 189 189 183 172 158 152 158 153 144 131 307 321 289 236 229 227 229 212 219 219 209 211 211 213 238 250 259 258 249 245 250 256 250 255 266 275 276 280 281
199 198 197 190 185 182 186 182 176 164 167 170 158 149 162 219 273 298 263 242 228 214 224 217 216 215 212 210 221 242 245 243 247 247 246 247 252 253 271 282 277 289 299
201 195 188 181 180 181 182 185 182 176 157 166 172 162 155 157 162 284 308 294 249 224 228 227 225 219 211 211 216 222 232 234 241 245 245 241 242 246 248 263 273 277 279
199 190 184 178 179 179 178 177 174 180 174 169 170 165 156 149 153 165 246 293 315 266 236 230 229 224 215 213 215 222 225 228 232 239 244 245 242 240 233 241 245 261 249
189 185 182 183 181 174 175 177 174 179 186 182 181 176 169 169 183 177 200 226 254 281 277 247 234 232 222 215 223 222 220 222 225 230 236 242 243 244 242 241 240 242 243
189 186 185 182 177 170 172 170 175 180 182 183 187 192 190 188 167 169 174 193 225 277 301 279 245 242 236 218 226 224 222 219 221 226 228 232 236 245 253 255 256 255 255
152 162 172 173 175 173 172 170 174 178 174 182 190 190 193 195 179 175 166 156 175 267 294 281 296 257 257 234 229 221 224 221 220 224 225 229 232 236 245 253 262 271 277
66 87 105 127 149 159 155 154 157 163 173 187 195 193 190 190 184 179 162 159 162 190 260 283 293 301 278 246 230 208 217 228 226 224 225 229 233 236 238 245 252 258 271
54 69 74 86 105 113 133 144 143 156 160 173 182 185 190 183 179 171 172 169 164 168 215 258 263 286 304 305 210 201 221 234 238 233 229 230 235 237 237 241 246 248 250
51 63 68 73 84 95 106 126 140 155 161 171 172 171 184 170 167 166 162 160 166 163 200 264 282 307 333 355 12 40 205 216 243 246 240 237 237 238 239 242 244 245 245
46 59 68 69 71 77 85 105 123 136 139 158 174 169 174 164 161 160 160 166 173 174 176 216 303 335 350 1 10 20 25 212 231 254 250 246 243 243 244 245 245 245 243
45 46 54 58 58 60 64 71 92 100 116 153 165 165 169 161 164 161 162 163 160 154 150 158 237 344 353 8 25 24 28 11 334 314 289 273 263 256 254 252 249 247 246
42 40 43 43 47 53 52 53 72 92 109 134 166 183 178 177 175 167 162 156 139 128 127 131 125 24 13 7 43 33 25 22 18 11 15 12 353 329 311 288 272 261 256
43 39 42 36 30 36 37 44 59 84 113 119 200 201 179 175 174 164 151 148 138 127 122 117 110 74 35 30 29 11 46 37 41 18 15 16 12 17 11 358 352 346 320
37 38 36 30 27 26 31 44 51 49 59 92 119 114 131 133 151 150 146 147 146 140 141 133 123 115 92 43 40 49 66 69 52 13 27 22 23 35 25 26 30 36 37
32 35 31 26 20 15 27 36 46 55 54 54 63 83 102 110 115 118 120 117 114 121 132 139 131 138 138 155 118 79 67 73 68 1 24 35 21 42 33 33 39 47 48
29 29 28 22 18 17 24 28 36 45 52 48 43 55 82 82 105 124 117 104 90 82 99 106 116 117 123 124 117 114 107 92 67 29 30 63 21 35 37 37 42 50 50
28 27 23 20 18 9 17 27 39 37 47 42 38 44 65 75 103 131 124 116 102 85 87 99 98 87 79 81 95 93 81 81 60 22 16 71 36 33 42 37 34 43 47
23 23 23 17 14 9 12 22 33 42 51 47 40 38 47 61 102 121 126 129 123 113 104 88 72 60 57 56 57 66 98 105 101 56 8 53 46 53 74 40 32 30 38